Time,TemperatureF,DewpointF,PressureIn,WindDirection,WindDirectionDegrees,WindSpeedMPH,WindSpeedGustMPH,Humidity,HourlyPrecipIn,Conditions,Clouds,dailyrainin,SoftwareType,DateUTC
2013-03-06 00:21:00,52.0,48.0,30.12,WNW,300,6.0,-999.0,86,0.00,,,-99.99,,2013-03-06 08:21:00,
2013-03-06 00:31:00,52.0,48.0,30.12,WNW,300,6.0,-999.0,86,0.00,,,-99.99,,2013-03-06 08:31:00,
2013-03-06 00:42:00,52.0,48.0,30.12,WNW,300,6.0,-999.0,86,0.00,,,-99.99,,2013-03-06 08:42:00,
2013-03-06 00:52:00,52.0,48.0,30.12,WNW,300,6.0,-999.0,86,0.00,,,-99.99,,2013-03-06 08:52:00,
2013-03-06 01:21:00,52.0,47.0,30.13,West,270,6.0,-999.0,82,0.00,,,-99.99,,2013-03-06 09:21:00,
2013-03-06 01:31:00,52.0,47.0,30.13,West,270,6.0,-999.0,82,0.00,,,-99.99,,2013-03-06 09:31:00,
2013-03-06 01:41:00,52.0,47.0,30.13,West,270,6.0,-999.0,82,0.00,,,-99.99,,2013-03-06 09:41:00,
2013-03-06 01:51:00,52.0,47.0,30.13,West,270,6.0,-999.0,82,0.00,,,-99.99,,2013-03-06 09:51:00,
2013-03-06 02:21:00,52.0,45.0,30.11,WNW,290,5.0,-999.0,78,0.00,,,-99.99,,2013-03-06 10:21:00,
2013-03-06 02:31:00,52.0,45.0,30.11,WNW,290,5.0,-999.0,78,0.00,,,-99.99,,2013-03-06 10:31:00,
2013-03-06 02:42:00,52.0,45.0,30.11,WNW,290,5.0,-999.0,78,0.00,,,-99.99,,2013-03-06 10:42:00,
2013-03-06 02:51:00,52.0,45.0,30.11,WNW,290,5.0,-999.0,78,0.00,,,-99.99,,2013-03-06 10:51:00,
2013-03-06 03:22:00,52.0,45.0,30.10,West,260,3.0,-999.0,77,0.00,,,-99.99,,2013-03-06 11:22:00,
2013-03-06 03:32:00,52.0,45.0,30.10,West,260,3.0,-999.0,77,0.00,,,-99.99,,2013-03-06 11:32:00,
2013-03-06 03:42:00,52.0,45.0,30.10,West,260,3.0,-999.0,77,0.00,,,-99.99,,2013-03-06 11:42:00,
2013-03-06 03:52:00,52.0,45.0,30.10,West,260,3.0,-999.0,77,0.00,,,-99.99,,2013-03-06 11:52:00,
2013-03-06 04:21:00,52.0,45.0,30.10,WNW,300,5.0,-999.0,76,0.00,,,-99.99,,2013-03-06 12:21:00,
2013-03-06 04:32:00,52.0,45.0,30.10,WNW,300,5.0,-999.0,76,0.00,,,-99.99,,2013-03-06 12:32:00,
2013-03-06 04:42:00,52.0,45.0,30.10,WNW,300,5.0,-999.0,76,0.00,,,-99.99,,2013-03-06 12:42:00,
2013-03-06 04:52:00,52.0,45.0,30.10,WNW,300,5.0,-999.0,76,0.00,,,-99.99,,2013-03-06 12:52:00,
2013-03-06 05:22:00,52.0,44.0,30.11,NW,310,1.0,-999.0,75,0.00,,,-99.99,,2013-03-06 13:22:00,
2013-03-06 05:32:00,52.0,44.0,30.11,NW,310,1.0,-999.0,75,0.00,,,-99.99,,2013-03-06 13:32:00,
2013-03-06 05:42:00,52.0,44.0,30.11,NW,310,1.0,-999.0,75,0.00,,,-99.99,,2013-03-06 13:42:00,
2013-03-06 05:51:00,52.0,44.0,30.11,NW,310,1.0,-999.0,75,0.00,,,-99.99,,2013-03-06 13:51:00,
2013-03-06 06:21:00,51.0,44.0,30.12,North,0,0.0,-999.0,77,0.00,,,-99.99,,2013-03-06 14:21:00,
2013-03-06 06:32:00,51.0,44.0,30.12,North,0,0.0,-999.0,77,0.00,,,-99.99,,2013-03-06 14:32:00,
2013-03-06 06:42:00,51.0,44.0,30.12,North,0,0.0,-999.0,77,0.00,,,-99.99,,2013-03-06 14:42:00,
2013-03-06 06:52:00,51.0,44.0,30.12,North,0,0.0,-999.0,77,0.00,,,-99.99,,2013-03-06 14:52:00,
2013-03-06 07:21:00,51.0,45.0,30.11,North,0,0.0,-999.0,79,0.00,,,-99.99,,2013-03-06 15:21:00,
2013-03-06 07:32:00,51.0,45.0,30.11,North,0,0.0,-999.0,79,0.00,,,-99.99,,2013-03-06 15:32:00,
2013-03-06 07:42:00,51.0,45.0,30.11,North,0,0.0,-999.0,79,0.00,,,-99.99,,2013-03-06 15:42:00,
2013-03-06 07:52:00,51.0,45.0,30.11,North,0,0.0,-999.0,79,0.00,,,-99.99,,2013-03-06 15:52:00,
2013-03-06 08:21:00,54.0,45.0,30.12,NNE,20,3.0,-999.0,72,0.00,,,-99.99,,2013-03-06 16:21:00,
2013-03-06 08:32:00,54.0,45.0,30.12,NNE,20,3.0,-999.0,72,0.00,,,-99.99,,2013-03-06 16:32:00,
2013-03-06 08:42:00,54.0,45.0,30.12,NNE,20,3.0,-999.0,72,0.00,,,-99.99,,2013-03-06 16:42:00,
2013-03-06 08:51:00,54.0,45.0,30.12,NNE,20,3.0,-999.0,72,0.00,,,-99.99,,2013-03-06 16:51:00,
2013-03-06 09:21:00,54.0,45.0,30.14,North,0,0.0,-999.0,71,0.00,,,-99.99,,2013-03-06 17:21:00,
2013-03-06 09:32:00,54.0,45.0,30.14,North,0,0.0,-999.0,71,0.00,,,-99.99,,2013-03-06 17:32:00,
2013-03-06 09:41:00,54.0,45.0,30.14,North,0,0.0,-999.0,71,0.00,,,-99.99,,2013-03-06 17:41:00,
2013-03-06 09:52:00,54.0,45.0,30.14,North,0,0.0,-999.0,71,0.00,,,-99.99,,2013-03-06 17:52:00,
2013-03-06 10:28:00,55.0,45.0,30.15,SW,220,4.0,-999.0,68,0.00,,,-99.99,,2013-03-06 18:28:00,
2013-03-06 10:42:00,55.0,45.0,30.15,SW,220,4.0,-999.0,68,0.00,,,-99.99,,2013-03-06 18:42:00,
2013-03-06 10:52:00,55.0,45.0,30.15,SW,220,4.0,-999.0,68,0.00,,,-99.99,,2013-03-06 18:52:00,
2013-03-06 11:21:00,57.0,42.0,30.13,WSW,240,4.0,-999.0,57,0.00,,,-99.99,,2013-03-06 19:21:00,
2013-03-06 11:32:00,57.0,42.0,30.13,WSW,240,4.0,-999.0,57,0.00,,,-99.99,,2013-03-06 19:32:00,
2013-03-06 11:43:00,57.0,42.0,30.13,WSW,240,4.0,-999.0,57,0.00,,,-99.99,,2013-03-06 19:43:00,
2013-03-06 11:52:00,57.0,42.0,30.13,WSW,240,4.0,-999.0,57,0.00,,,-99.99,,2013-03-06 19:52:00,
2013-03-06 12:22:00,55.0,44.0,30.12,West,270,9.0,-999.0,67,0.00,,,-99.99,,2013-03-06 20:22:00,
2013-03-06 12:32:00,55.0,44.0,30.12,West,270,9.0,-999.0,67,0.00,,,-99.99,,2013-03-06 20:32:00,
2013-03-06 12:42:00,55.0,44.0,30.12,West,270,9.0,-999.0,67,0.00,,,-99.99,,2013-03-06 20:42:00,
2013-03-06 12:52:00,55.0,44.0,30.12,West,270,9.0,-999.0,67,0.00,,,-99.99,,2013-03-06 20:52:00,
2013-03-06 13:22:00,56.0,45.0,30.09,West,260,10.0,-999.0,66,0.00,,,-99.99,,2013-03-06 21:22:00,
2013-03-06 13:32:00,56.0,45.0,30.09,West,260,10.0,-999.0,66,0.00,,,-99.99,,2013-03-06 21:32:00,
2013-03-06 13:42:00,56.0,45.0,30.09,West,260,10.0,-999.0,66,0.00,,,-99.99,,2013-03-06 21:42:00,
2013-03-06 13:51:00,56.0,45.0,30.09,West,260,10.0,-999.0,66,0.00,,,-99.99,,2013-03-06 21:51:00,
2013-03-06 14:21:00,56.0,44.0,30.06,WNW,300,5.0,-999.0,65,0.00,,,-99.99,,2013-03-06 22:21:00,
2013-03-06 14:32:00,56.0,44.0,30.06,WNW,300,5.0,-999.0,65,0.00,,,-99.99,,2013-03-06 22:32:00,
2013-03-06 14:41:00,56.0,44.0,30.06,WNW,300,5.0,-999.0,65,0.00,,,-99.99,,2013-03-06 22:41:00,
2013-03-06 14:51:00,56.0,44.0,30.06,WNW,300,5.0,-999.0,65,0.00,,,-99.99,,2013-03-06 22:51:00,
2013-03-06 15:21:00,56.0,46.0,30.05,WNW,290,14.0,-999.0,70,0.00,,,-99.99,,2013-03-06 23:21:00,
2013-03-06 15:32:00,56.0,46.0,30.05,WNW,290,14.0,-999.0,70,0.00,,,-99.99,,2013-03-06 23:32:00,
2013-03-06 15:41:00,56.0,46.0,30.05,WNW,290,14.0,-999.0,70,0.00,,,-99.99,,2013-03-06 23:41:00,
2013-03-06 15:52:00,56.0,46.0,30.05,WNW,290,14.0,-999.0,70,0.00,,,-99.99,,2013-03-06 23:52:00,
2013-03-06 16:21:00,55.0,46.0,30.05,West,270,6.0,-999.0,72,0.00,,,-99.99,,2013-03-07 00:21:00,
2013-03-06 16:32:00,55.0,46.0,30.05,West,270,6.0,-999.0,72,0.00,,,-99.99,,2013-03-07 00:32:00,
2013-03-06 16:41:00,55.0,46.0,30.05,West,270,6.0,-999.0,72,0.00,,,-99.99,,2013-03-07 00:41:00,
2013-03-06 16:51:00,55.0,46.0,30.05,West,270,6.0,-999.0,72,0.00,,,-99.99,,2013-03-07 00:51:00,
2013-03-06 17:21:00,55.0,47.0,30.04,WNW,290,4.0,-999.0,75,0.00,,,-99.99,,2013-03-07 01:21:00,
2013-03-06 17:31:00,55.0,47.0,30.04,WNW,290,4.0,-999.0,75,0.00,,,-99.99,,2013-03-07 01:31:00,
2013-03-06 17:41:00,55.0,47.0,30.04,WNW,290,4.0,-999.0,75,0.00,,,-99.99,,2013-03-07 01:41:00,
2013-03-06 17:51:00,55.0,47.0,30.04,WNW,290,4.0,-999.0,75,0.00,,,-99.99,,2013-03-07 01:51:00,
2013-03-06 18:21:00,54.0,47.0,30.03,NNW,340,5.0,-999.0,77,0.00,,,-99.99,,2013-03-07 02:21:00,
2013-03-06 18:31:00,54.0,47.0,30.03,NNW,340,5.0,-999.0,77,0.00,,,-99.99,,2013-03-07 02:31:00,
2013-03-06 18:41:00,54.0,47.0,30.03,NNW,340,5.0,-999.0,77,0.00,,,-99.99,,2013-03-07 02:41:00,
2013-03-06 18:51:00,54.0,47.0,30.03,NNW,340,5.0,-999.0,77,0.00,,,-99.99,,2013-03-07 02:51:00,
2013-03-06 19:21:00,54.0,46.0,30.04,NW,320,3.0,-999.0,74,0.00,,,-99.99,,2013-03-07 03:21:00,
2013-03-06 19:32:00,54.0,46.0,30.04,NW,320,3.0,-999.0,74,0.00,,,-99.99,,2013-03-07 03:32:00,
2013-03-06 19:41:00,54.0,46.0,30.04,NW,320,3.0,-999.0,74,0.00,,,-99.99,,2013-03-07 03:41:00,
2013-03-06 19:51:00,54.0,46.0,30.04,NW,320,3.0,-999.0,74,0.00,,,-99.99,,2013-03-07 03:51:00,
2013-03-06 20:21:00,55.0,47.0,30.03,NW,320,3.0,-999.0,75,0.00,,,-99.99,,2013-03-07 04:21:00,
2013-03-06 20:31:00,55.0,47.0,30.03,NW,320,3.0,-999.0,75,0.00,,,-99.99,,2013-03-07 04:31:00,
2013-03-06 20:41:00,55.0,47.0,30.03,NW,320,3.0,-999.0,75,0.00,,,-99.99,,2013-03-07 04:41:00,
2013-03-06 20:51:00,55.0,47.0,30.03,NW,320,3.0,-999.0,75,0.00,,,-99.99,,2013-03-07 04:51:00,
2013-03-06 21:22:00,55.0,49.0,30.03,WNW,300,4.0,-999.0,79,0.00,,,-99.99,,2013-03-07 05:22:00,
2013-03-06 21:32:00,55.0,49.0,30.03,WNW,300,4.0,-999.0,79,0.00,,,-99.99,,2013-03-07 05:32:00,
2013-03-06 21:42:00,55.0,49.0,30.03,WNW,300,4.0,-999.0,79,0.00,,,-99.99,,2013-03-07 05:42:00,
2013-03-06 21:52:00,55.0,49.0,30.03,WNW,300,4.0,-999.0,79,0.00,,,-99.99,,2013-03-07 05:52:00,
2013-03-06 22:21:00,54.0,49.0,30.03,WNW,300,5.0,-999.0,84,0.00,,,-99.99,,2013-03-07 06:21:00,
2013-03-06 22:31:00,54.0,49.0,30.03,WNW,300,5.0,-999.0,84,0.00,,,-99.99,,2013-03-07 06:31:00,
2013-03-06 22:41:00,54.0,49.0,30.03,WNW,300,5.0,-999.0,84,0.00,,,-99.99,,2013-03-07 06:41:00,
2013-03-06 22:51:00,54.0,49.0,30.03,WNW,300,5.0,-999.0,84,0.00,,,-99.99,,2013-03-07 06:51:00,
2013-03-06 23:21:00,54.0,50.0,30.02,North,360,2.0,-999.0,85,0.00,,,-99.99,,2013-03-07 07:21:00,
2013-03-06 23:32:00,54.0,50.0,30.02,North,360,2.0,-999.0,85,0.00,,,-99.99,,2013-03-07 07:32:00,
2013-03-06 23:42:00,54.0,50.0,30.02,North,360,2.0,-999.0,85,0.00,,,-99.99,,2013-03-07 07:42:00,
2013-03-06 23:52:00,54.0,50.0,30.02,North,360,2.0,-999.0,85,0.00,,,-99.99,,2013-03-07 07:52:00,